{"data":{"norad_id":53641,"epoch":"2026-05-24T17:02:21.707808Z","epoch_age_seconds":99313,"freshness":"FRESH","line1":"1 53641U 22104BF  26144.70997347  .00000548  00000+0  52528-4 0  9993","line2":"2 53641  53.2140 242.7154 0001397  89.7585 270.3568 15.08832104207702","mean_motion":15.08832104,"eccentricity":0.0001397,"inclination_deg":53.214,"raan_deg":242.7154,"arg_perigee_deg":89.7585,"mean_anomaly_deg":270.3568,"bstar":5.2528e-5,"rev_number":20770,"period_min":95.438054120301,"perigee_km":538.80109272051,"apogee_km":540.73395524451,"semimajor_km":6917.9045239825,"source":"CELESTRAK","updated_at":"2026-05-25T13:38:17.483678Z"}}